軌道要素
The following orbital elements are taken from MPC 56803:
Epoch 2009 June 18.0 TT = JDT 2455000.5
T 2009 June 16.0400 TT MPC
q 1.916128 (2000.0) P Q
n 0.1314085 Peri. 340.2651 +0.7478417 -0.3471004
a 3.831661 Node 54.0759 +0.6631840 +0.3516488
e 0.499922 Incl. 44.3333 +0.0303291 +0.8694047
P 7.50
From 144 observations 2003 Jan. 5-Apr. 6, mean residual 0".6.
|